THY72 LTFM-ZGGG

Flight info

Callsign THY72
Flight time N/A
Altitude 31000
Route EKAWE1D/35L EKAWE UT643 GAKSU UT310 SIN DCT REBLO M11 MATAL T916 SUBUT T923 ERLEV M11 RODAR A909 LEMOD/N0495F330 N644 REGET G325 HANGU P500 PS T400 SULOM M890 LKN A201 ANSOS/N0499F350 A201 LSO A599 LINSO/K0926S1070 A599 GYA GYA8
Aircraft B77W/H-SDE1E2E3FGHIJ2J3J4J5M1RWXY/LB1D1

Departure

Time N/A
Airport İstanbul Airport (LTFM)

Arrival

Time 2026-05-06 06:50
Airport Guangzhou Baiyun International Airport (ZGGG)
Time Latitude Longitude Altitude Speed Heading
2026-05-06 05:32 39.14155 57.68046 30766 ft 516 kts 113°
2026-05-06 05:32 38.95663 58.37139 30890 ft 514 kts 114°
2026-05-06 05:33 38.72413 59.03877 30822 ft 511 kts 121°
2026-05-06 05:33 38.47648 59.68494 30835 ft 509 kts 119°
2026-05-06 05:34 38.23093 60.33553 30852 ft 511 kts 120°
2026-05-06 05:34 37.97981 60.98682 30874 ft 515 kts 120°
2026-05-06 05:35 37.72341 61.63797 30875 ft 519 kts 119°
2026-05-06 05:35 37.41374 62.24377 30898 ft 514 kts 129°
2026-05-06 05:36 37.07173 62.81919 31165 ft 527 kts 128°
2026-05-06 05:36 36.89546 63.11139 32789 ft 526 kts 129°
2026-05-06 05:36 36.71702 63.40391 33056 ft 531 kts 129°
2026-05-06 05:37 36.53884 63.69385 32880 ft 519 kts 129°
2026-05-06 05:37 36.36615 63.97248 32809 ft 500 kts 129°
2026-05-06 05:37 36.19634 64.24425 32959 ft 499 kts 129°
2026-05-06 05:37 36.02871 64.52291 33094 ft 513 kts 127°
2026-05-06 05:38 35.68793 65.09022 33012 ft 513 kts 128°
2026-05-06 05:38 35.51893 65.36788 33023 ft 501 kts 128°
2026-05-06 05:38 35.35141 65.64091 33187 ft 505 kts 128°
2026-05-06 05:39 35.17942 65.91901 33306 ft 518 kts 128°
2026-05-06 05:39 35.00371 66.20090 33226 ft 521 kts 128°
2026-05-06 05:39 34.82808 66.47845 33111 ft 511 kts 128°
2026-05-06 05:39 34.65510 66.74908 33124 ft 505 kts 128°
2026-05-06 05:40 34.30186 67.29400 33264 ft 525 kts 128°
2026-05-06 05:40 34.12267 67.56706 33157 ft 524 kts 128°
2026-05-06 05:40 33.94229 67.83951 33038 ft 514 kts 129°
2026-05-06 05:41 33.58008 68.37307 33111 ft 525 kts 129°
2026-05-06 05:41 33.38914 68.64340 33087 ft 536 kts 130°
2026-05-06 05:41 33.19944 68.91719 32987 ft 532 kts 127°
2026-05-06 05:42 32.84307 69.46954 32964 ft 525 kts 128°
2026-05-06 05:42 32.66342 69.74197 33071 ft 537 kts 128°
2026-05-06 05:42 32.47654 70.02336 32999 ft 546 kts 128°
2026-05-06 05:43 32.34031 70.32920 32807 ft 513 kts 91°
2026-05-06 05:43 32.31464 70.66816 33041 ft 529 kts 96°
2026-05-06 05:43 32.26864 71.01618 32985 ft 540 kts 95°
2026-05-06 05:43 32.22537 71.36552 32807 ft 532 kts 95°
2026-05-06 05:44 32.18135 71.70649 32736 ft 518 kts 95°
2026-05-06 05:44 32.13783 72.03868 32923 ft 523 kts 95°
2026-05-06 05:44 32.09186 72.38138 33030 ft 537 kts 95°
2026-05-06 05:44 32.04387 72.73154 32938 ft 540 kts 95°
2026-05-06 05:45 31.99543 73.07758 32809 ft 529 kts 95°
2026-05-06 05:45 31.94727 73.41565 32821 ft 521 kts 95°
2026-05-06 05:45 31.89799 73.75473 32974 ft 529 kts 96°
2026-05-06 05:45 31.84131 74.09853 32923 ft 551 kts 110°
2026-05-06 05:46 31.61324 74.31436 33035 ft 528 kts 155°
2026-05-06 05:46 31.38414 74.53062 33115 ft 542 kts 140°
2026-05-06 05:46 31.27247 74.84167 33058 ft 529 kts 94°
2026-05-06 05:46 31.19190 75.18224 32989 ft 548 kts 105°
2026-05-06 05:47 31.10531 75.52046 32822 ft 540 kts 108°
2026-05-06 05:47 30.99565 75.84174 32820 ft 528 kts 110°
2026-05-06 05:47 30.88899 76.16082 32960 ft 532 kts 110°
2026-05-06 05:47 30.77891 76.48435 33050 ft 544 kts 110°
2026-05-06 05:48 30.66084 76.80898 32890 ft 546 kts 122°
2026-05-06 05:48 30.47590 77.08133 32890 ft 533 kts 127°
2026-05-06 05:48 30.25989 77.28676 33007 ft 504 kts 162°
2026-05-06 05:48 29.99962 77.43300 33121 ft 533 kts 155°
2026-05-06 05:49 29.75825 77.64495 33024 ft 551 kts 143°
2026-05-06 05:49 29.51859 77.85893 32795 ft 538 kts 145°
2026-05-06 05:49 29.28484 78.06632 32770 ft 526 kts 145°
2026-05-06 05:49 29.05271 78.27088 32922 ft 531 kts 146°
2026-05-06 05:50 28.81549 78.47880 32997 ft 544 kts 146°
2026-05-06 05:50 28.57385 78.68932 32885 ft 545 kts 146°
2026-05-06 05:50 28.14090 79.15428 32753 ft 531 kts 139°
2026-05-06 05:51 27.93044 79.39049 32888 ft 537 kts 139°
2026-05-06 05:51 27.71649 79.63081 32975 ft 549 kts 139°
2026-05-06 05:51 27.32032 80.15506 32739 ft 537 kts 134°
2026-05-06 05:52 26.93697 80.66097 32929 ft 537 kts 134°
2026-05-06 05:52 26.74848 80.92004 32942 ft 559 kts 122°
2026-05-06 05:52 26.66641 81.25435 32907 ft 550 kts 107°
2026-05-06 05:53 26.57825 81.57677 32740 ft 537 kts 109°
2026-05-06 05:53 26.49327 81.89579 32870 ft 539 kts 110°
2026-05-06 05:53 26.40545 82.21930 32978 ft 551 kts 110°
2026-05-06 05:53 26.31546 82.54872 32895 ft 555 kts 110°
2026-05-06 05:54 26.22569 82.87384 32756 ft 544 kts 111°
2026-05-06 05:54 26.13649 83.19352 32772 ft 538 kts 111°
2026-05-06 05:54 26.04651 83.51304 32926 ft 547 kts 111°
2026-05-06 05:54 25.95524 83.83509 32963 ft 558 kts 111°
2026-05-06 05:55 25.86168 84.16276 32817 ft 553 kts 112°
2026-05-06 05:55 25.76886 84.48458 32729 ft 542 kts 112°
2026-05-06 05:55 25.67646 84.80190 32860 ft 542 kts 112°
2026-05-06 05:55 25.58306 85.12322 32990 ft 557 kts 109°
2026-05-06 05:56 25.46627 85.79976 32751 ft 549 kts 105°
2026-05-06 05:56 25.34557 86.45544 32876 ft 550 kts 111°
2026-05-06 05:57 25.08812 87.07010 32931 ft 559 kts 120°
2026-05-06 05:57 24.95808 87.37820 32807 ft 549 kts 120°
2026-05-06 05:57 24.83037 87.67972 32774 ft 537 kts 121°
2026-05-06 05:58 24.70540 87.97898 32896 ft 542 kts 119°
2026-05-06 05:58 24.57868 88.28278 32977 ft 552 kts 120°
2026-05-06 05:58 24.37778 88.91896 32853 ft 550 kts 104°
2026-05-06 05:59 24.31282 89.24120 32787 ft 538 kts 107°
2026-05-06 05:59 24.24749 89.55982 33209 ft 553 kts 106°
2026-05-06 05:59 24.17929 89.88901 34707 ft 555 kts 106°
2026-05-06 05:59 24.10989 90.22063 35002 ft 562 kts 106°
2026-05-06 06:00 24.03927 90.55320 34850 ft 556 kts 107°
2026-05-06 06:00 23.96906 90.87759 34742 ft 540 kts 107°
2026-05-06 06:00 23.83541 91.51152 34968 ft 541 kts 105°
2026-05-06 06:01 23.70465 92.15809 34902 ft 549 kts 105°
2026-05-06 06:01 23.63836 92.47995 34813 ft 537 kts 105°
2026-05-06 06:01 23.57560 92.79597 34871 ft 532 kts 103°
2026-05-06 06:02 23.51735 93.11289 34978 ft 535 kts 104°
2026-05-06 06:02 23.45679 93.43268 35066 ft 543 kts 104°
2026-05-06 06:02 23.38985 94.09029 34829 ft 540 kts 98°
2026-05-06 06:03 23.35740 94.41154 34745 ft 528 kts 98°
2026-05-06 06:03 23.32525 94.72453 34880 ft 529 kts 98°
2026-05-06 06:03 23.25670 95.37209 34936 ft 546 kts 98°
2026-05-06 06:04 23.22112 95.69853 34807 ft 540 kts 98°
2026-05-06 06:04 23.18543 96.01947 34740 ft 529 kts 98°
2026-05-06 06:04 23.14950 96.33640 34859 ft 529 kts 98°
2026-05-06 06:04 23.11266 96.65573 34997 ft 538 kts 98°
2026-05-06 06:05 23.03598 97.30316 34867 ft 535 kts 98°
2026-05-06 06:05 23.02990 97.92219 34987 ft 514 kts 63°
2026-05-06 06:06 23.14003 98.21488 35108 ft 533 kts 69°
2026-05-06 06:06 23.24173 98.52039 35012 ft 540 kts 68°
2026-05-06 06:06 23.34419 98.82484 34847 ft 529 kts 69°
2026-05-06 06:06 23.43968 99.12290 34779 ft 515 kts 70°
2026-05-06 06:07 23.53244 99.41856 34932 ft 519 kts 66°
2026-05-06 06:07 23.67753 99.69295 35070 ft 530 kts 57°
2026-05-06 06:07 23.96786 100.25535 34911 ft 532 kts 58°
2026-05-06 06:08 24.11139 100.53528 34803 ft 523 kts 58°
2026-05-06 06:08 24.25125 100.81378 34829 ft 522 kts 59°
2026-05-06 06:08 24.39183 101.09616 34980 ft 533 kts 59°
2026-05-06 06:08 24.53525 101.38584 34984 ft 545 kts 59°
2026-05-06 06:09 24.67878 101.67857 34829 ft 541 kts 59°
2026-05-06 06:09 24.81805 101.96776 34724 ft 529 kts 59°
2026-05-06 06:09 25.07910 102.54087 34722 ft 540 kts 81°
2026-05-06 06:10 24.97177 102.82099 35108 ft 493 kts 150°
2026-05-06 06:10 24.82713 103.08933 35216 ft 545 kts 110°
2026-05-06 06:10 24.69676 103.39303 34959 ft 554 kts 119°
2026-05-06 06:10 24.56330 103.69559 34731 ft 544 kts 118°
2026-05-06 06:11 24.48369 104.01204 34636 ft 532 kts 102°
2026-05-06 06:11 24.41709 104.32742 34781 ft 532 kts 105°
2026-05-06 06:11 24.34862 104.64241 34871 ft 545 kts 104°
2026-05-06 06:11 24.27702 104.96844 34805 ft 551 kts 104°
2026-05-06 06:12 24.20492 105.29149 34644 ft 540 kts 106°
2026-05-06 06:12 24.12780 105.60499 34640 ft 526 kts 106°
2026-05-06 06:12 24.06045 105.91606 34786 ft 530 kts 102°
2026-05-06 06:12 23.99782 106.23431 34896 ft 540 kts 103°
2026-05-06 06:13 23.90397 106.88150 34782 ft 534 kts 92°
2026-05-06 06:13 23.86107 107.51590 34859 ft 525 kts 94°
2026-05-06 06:14 23.83803 107.83613 34962 ft 533 kts 95°
2026-05-06 06:14 23.82124 108.16165 34972 ft 540 kts 93°
2026-05-06 06:14 23.78363 108.80823 34800 ft 523 kts 93°
2026-05-06 06:15 23.70457 109.43359 34994 ft 527 kts 103°
2026-05-06 06:15 23.57499 110.06643 34896 ft 533 kts 103°
2026-05-06 06:16 23.51045 110.37504 34807 ft 522 kts 102°
2026-05-06 06:16 23.44834 110.68052 34844 ft 515 kts 102°
2026-05-06 06:16 23.38391 110.98541 34946 ft 520 kts 103°
2026-05-06 06:16 23.31882 111.29636 35009 ft 531 kts 102°
2026-05-06 06:17 23.18833 111.92008 34841 ft 521 kts 102°
2026-05-06 06:17 23.06118 112.52876 34989 ft 521 kts 103°
2026-05-06 06:18 22.93508 113.12549 34544 ft 468 kts 103°
2026-05-06 06:18 22.88065 113.38382 34426 ft 425 kts 103°
2026-05-06 06:18 22.82946 113.62776 34611 ft 417 kts 103°
2026-05-06 06:19 22.79312 113.80069 35154 ft 438 kts 103°
2026-05-06 06:19 22.78626 113.83324 35093 ft 448 kts 103°
2026-05-06 06:19 22.77211 113.90045 35047 ft 466 kts 103°
2026-05-06 06:20 22.75743 113.97010 34998 ft 483 kts 103°
2026-05-06 06:20 22.74235 114.04165 34992 ft 498 kts 103°
2026-05-06 06:21 22.73359 114.11675 34980 ft 509 kts 85°
2026-05-06 06:21 22.74039 114.15418 34972 ft 510 kts 66°
2026-05-06 06:21 22.75706 114.18787 34995 ft 508 kts 50°
2026-05-06 06:22 22.78093 114.21578 34992 ft 506 kts 35°
2026-05-06 06:22 22.90447 114.24746 34984 ft 483 kts 335°
2026-05-06 06:22 22.98989 114.14571 35004 ft 475 kts 284°
2026-05-06 06:22 23.01746 114.00729 34883 ft 459 kts 282°
2026-05-06 06:23 23.04588 113.87181 31771 ft 466 kts 282°
2026-05-06 06:23 23.07512 113.73488 28674 ft 466 kts 282°
2026-05-06 06:23 23.10384 113.59927 26124 ft 455 kts 282°
2026-05-06 06:23 23.12857 113.48200 24064 ft 445 kts 282°
2026-05-06 06:24 23.13547 113.44919 23358 ft 446 kts 282°
2026-05-06 06:24 23.14235 113.41644 22606 ft 445 kts 282°
2026-05-06 06:24 23.14911 113.38425 21915 ft 443 kts 282°
2026-05-06 06:24 23.15592 113.35177 21312 ft 439 kts 282°
2026-05-06 06:25 23.16268 113.31951 20743 ft 436 kts 282°
2026-05-06 06:25 23.16907 113.28899 20193 ft 432 kts 281°
2026-05-06 06:25 23.18437 113.22667 19067 ft 423 kts 294°
2026-05-06 06:26 23.20105 113.20040 18523 ft 425 kts 311°
2026-05-06 06:26 23.22413 113.18029 17910 ft 429 kts 327°
2026-05-06 06:26 23.25118 113.16758 17326 ft 431 kts 341°
2026-05-06 06:26 23.28063 113.16177 16776 ft 432 kts 355°
2026-05-06 06:27 23.31038 113.16482 16230 ft 429 kts
2026-05-06 06:27 23.33944 113.17178 15655 ft 427 kts 11°
2026-05-06 06:27 23.36836 113.17887 15175 ft 423 kts 10°
2026-05-06 06:27 23.39699 113.18542 14864 ft 415 kts
2026-05-06 06:28 23.42499 113.19146 14625 ft 405 kts
2026-05-06 06:28 23.45226 113.19720 14448 ft 395 kts
2026-05-06 06:28 23.47858 113.20263 14282 ft 385 kts
2026-05-06 06:28 23.50453 113.20795 14130 ft 375 kts
2026-05-06 06:29 23.52993 113.21316 13965 ft 367 kts
2026-05-06 06:29 23.55472 113.21825 13807 ft 358 kts
2026-05-06 06:29 23.57893 113.22323 13646 ft 350 kts
2026-05-06 06:29 23.60259 113.22811 13491 ft 342 kts
2026-05-06 06:30 23.62572 113.23288 13311 ft 335 kts
2026-05-06 06:30 23.64875 113.23763 13045 ft 340 kts
2026-05-06 06:30 23.67202 113.24243 12907 ft 338 kts
2026-05-06 06:30 23.69451 113.24732 12840 ft 329 kts
2026-05-06 06:31 23.71654 113.25219 12742 ft 317 kts
2026-05-06 06:31 23.73767 113.25684 12626 ft 300 kts
2026-05-06 06:31 23.75737 113.26119 12434 ft 278 kts
2026-05-06 06:31 23.77578 113.26524 12108 ft 263 kts
2026-05-06 06:32 23.79303 113.27042 11656 ft 256 kts 25°
2026-05-06 06:32 23.80551 113.28404 10967 ft 260 kts 62°
2026-05-06 06:32 23.80966 113.30309 10280 ft 260 kts 92°
2026-05-06 06:32 23.80563 113.32201 9634 ft 254 kts 119°
2026-05-06 06:33 23.79558 113.33703 9002 ft 245 kts 142°
2026-05-06 06:33 23.78138 113.34630 8430 ft 235 kts 160°
2026-05-06 06:33 23.76656 113.35364 7889 ft 233 kts 160°
2026-05-06 06:33 23.75189 113.36090 7321 ft 230 kts 160°
2026-05-06 06:34 23.73747 113.36811 6865 ft 224 kts 159°
2026-05-06 06:34 23.72349 113.37516 6594 ft 224 kts 159°
2026-05-06 06:34 23.70909 113.38242 6316 ft 231 kts 159°
2026-05-06 06:34 23.69450 113.38981 6010 ft 230 kts 159°
2026-05-06 06:35 23.68037 113.39697 5725 ft 225 kts 159°
2026-05-06 06:35 23.66574 113.40061 5449 ft 212 kts 186°
2026-05-06 06:35 23.65109 113.39853 5212 ft 215 kts 192°
2026-05-06 06:35 23.63637 113.39534 4940 ft 216 kts 194°
2026-05-06 06:36 23.62176 113.39162 4664 ft 215 kts 195°
2026-05-06 06:36 23.60733 113.38774 4378 ft 212 kts 195°
2026-05-06 06:36 23.59314 113.38388 4100 ft 207 kts 196°
2026-05-06 06:36 23.57959 113.38020 3832 ft 200 kts 195°
2026-05-06 06:37 23.56636 113.37659 3573 ft 193 kts 195°
2026-05-06 06:37 23.55350 113.37309 3337 ft 190 kts 195°
2026-05-06 06:37 23.54058 113.36956 3118 ft 192 kts 195°
2026-05-06 06:37 23.52799 113.36614 2851 ft 179 kts 194°
2026-05-06 06:38 23.51661 113.36306 2653 ft 158 kts 194°
2026-05-06 06:38 23.50630 113.36025 2437 ft 150 kts 194°
2026-05-06 06:38 23.49621 113.35751 2272 ft 150 kts 194°
2026-05-06 06:38 23.48603 113.35462 2111 ft 152 kts 196°
2026-05-06 06:39 23.47529 113.35119 2148 ft 182 kts 197°
2026-05-06 06:39 23.46325 113.34744 2999 ft 178 kts 195°
2026-05-06 06:39 23.45098 113.34415 2996 ft 170 kts 195°
2026-05-06 06:39 23.43984 113.34247 2979 ft 164 kts 165°
2026-05-06 06:40 23.43036 113.35089 3065 ft 203 kts 120°
2026-05-06 06:40 23.42709 113.36686 3064 ft 226 kts 88°
2026-05-06 06:40 23.43292 113.38268 3059 ft 230 kts 52°
2026-05-06 06:40 23.44379 113.39548 3654 ft 230 kts 45°
2026-05-06 06:41 23.45470 113.40768 4441 ft 227 kts 46°
2026-05-06 06:41 23.51371 113.48246 5699 ft 277 kts 51°
2026-05-06 06:41 23.57725 113.56631 5749 ft 281 kts 30°
2026-05-06 06:41 23.62999 113.55049 5269 ft 262 kts 318°
2026-05-06 06:42 23.65785 113.52734 5113 ft 264 kts 320°
2026-05-06 06:42 23.67251 113.51522 5023 ft 263 kts 319°
2026-05-06 06:42 23.68398 113.50049 4951 ft 253 kts 291°
2026-05-06 06:42 23.68775 113.48185 4944 ft 253 kts 269°
2026-05-06 06:43 23.68781 113.46258 4910 ft 254 kts 268°
2026-05-06 06:43 23.68783 113.44338 4922 ft 252 kts 268°
2026-05-06 06:43 23.68788 113.42463 4910 ft 248 kts 267°
2026-05-06 06:43 23.68418 113.40654 4926 ft 247 kts 242°
2026-05-06 06:44 23.67369 113.39154 4848 ft 253 kts 225°
2026-05-06 06:44 23.65914 113.38081 4542 ft 256 kts 199°
2026-05-06 06:44 23.64211 113.37688 4277 ft 244 kts 191°
2026-05-06 06:44 23.62611 113.37324 4117 ft 223 kts 194°
2026-05-06 06:45 23.61213 113.36955 4072 ft 195 kts 195°
2026-05-06 06:45 23.59952 113.36612 3823 ft 176 kts 195°
2026-05-06 06:45 23.58842 113.36310 3585 ft 155 kts 195°
2026-05-06 06:45 23.56870 113.35772 3313 ft 154 kts 195°
2026-05-06 06:46 23.54053 113.35010 2816 ft 169 kts 195°
2026-05-06 06:46 23.52955 113.34710 2504 ft 155 kts 195°
2026-05-06 06:46 23.51961 113.34437 2299 ft 144 kts 195°
2026-05-06 06:46 23.50963 113.34164 2121 ft 151 kts 194°
2026-05-06 06:47 23.49937 113.33887 1936 ft 152 kts 194°
2026-05-06 06:47 23.48904 113.33607 1721 ft 152 kts 194°
2026-05-06 06:47 23.47895 113.33333 1526 ft 148 kts 194°
2026-05-06 06:47 23.46904 113.33064 1345 ft 150 kts 193°
2026-05-06 06:48 23.45895 113.32789 1130 ft 149 kts 194°
2026-05-06 06:48 23.44881 113.32514 950 ft 152 kts 194°
2026-05-06 06:48 23.43854 113.32233 757 ft 152 kts 193°
2026-05-06 06:48 23.42828 113.31954 575 ft 152 kts 193°
2026-05-06 06:49 23.41797 113.31677 362 ft 153 kts 193°
2026-05-06 06:49 23.40780 113.31403 130 ft 149 kts 193°
2026-05-06 06:49 23.39856 113.31152 55 ft 121 kts 194°
2026-05-06 06:49 23.39225 113.30982 58 ft 68 kts 194°
2026-05-06 06:50 23.38943 113.30906 58 ft 17 kts 194°
2026-05-06 06:50 23.38814 113.30870 61 ft 21 kts 194°
2026-05-06 06:50 23.38680 113.30807 61 ft 21 kts 212°
2026-05-06 06:50 23.38567 113.30706 56 ft 20 kts 221°
2026-05-06 06:51 23.38522 113.30577 57 ft 20 kts 285°
2026-05-06 06:51 23.38558 113.30436 57 ft 18 kts 284°
2026-05-06 06:51 23.38589 113.30324 60 ft 14 kts 296°
2026-05-06 06:51 23.38631 113.30236 57 ft 12 kts 295°
2026-05-06 06:52 23.38660 113.30170 60 ft 7 kts 306°
2026-05-06 06:52 23.38695 113.30161 56 ft 6 kts
2026-05-06 06:52 23.38732 113.30180 57 ft 6 kts 26°
2026-05-06 06:52 23.38744 113.30186 63 ft 0 kts 27°